Hourly Weather Roundup
Issued by NWS Central Illinois

Home | Current Version | Previous Version | Text Only | Print | Product List | Glossary On
Versions: 1 2 3 4 5 6 7 8 9 10 11 12 13 14 15 16 17 18 19 20 21 22 23 24 25 26 27 28 29 30 31 32 33 34 35 36 37 38 39 40 41 42 43 44 45 46 47 48 49 50
000
NZUS43 KILX 301510
HWRILX

AREA WEATHER ROUNDUP
NATIONAL WEATHER SERVICE, LINCOLN IL
1000 AM CDT SAT JUL 30 2016


CITY           SKY/WX    TMP DP  RH WIND       PRES   REMARKS
BLOOMINGTON    CLOUDY    73  67  81 N3        29.99S
CHAMPAIGN      PTSUNNY   73  68  84 W7        29.98S
DANVILLE       CLOUDY    71  69  93 W6        29.95S
DECATUR        MOSUNNY   76  66  71 NW8       29.98S
EFFINGHAM      SUNNY     78  69  75 W5        30.00S
FLORA          SUNNY     80  69  70 N5        29.99S HX  83
GALESBURG      CLOUDY    72  67  85 CALM      29.99S
JACKSONVILLE   CLOUDY    71  67  87 NW3       29.99S
LACON          CLOUDY    72  68  87 CALM      29.97S FOG
LAWRENCEVILLE  PTSUNNY   78  70  76 CALM        N/A  HX  80
LITCHFIELD     NOT AVBL
$$


CITY           SKY/WX    TMP DP  RH WIND       PRES   REMARKS
LINCOLN        CLOUDY    72  69  90 CALM      29.98S
MACOMB         MOSUNNY   74  68  81 N3        30.00F
MATTOON        SUNNY     76  67  73 W9        29.97F
MT CARMEL AP   CLOUDY    77  68  74 N5        29.98F
OLNEY-NOBLE AP SUNNY     77  70  78 NW5       29.99S
PARIS          MOSUNNY   77  69  77 W5        29.98F
PEORIA         CLOUDY    75  68  78 NW6       29.97F
PONTIAC        CLOUDY    75  72  91 W3        29.98R FOG
RANTOUL        NOT AVBL
ROBINSON       MOSUNNY   76  69  78 CALM      29.98F
SPRINGFIELD    CLOUDY    72  67  84 W6        29.99F
TAYLORVILLE    PTSUNNY   75  68  80 MISG      29.99S
$$

...REGIONAL REPORTS...


CITY           SKY/WX    TMP DP  RH WIND       PRES   REMARKS
CHICAGO O`HARE CLOUDY    72  65  78 NE7       29.98R
KANKAKEE       CLOUDY    71  69  94 CALM      29.97S
MOLINE         CLOUDY    74  67  78 VRB6      29.98F
MOUNT STERLING CLOUDY    71  67  87 NW5       30.00S
MOUNT VERNON   MOSUNNY   79  66  65 CALM      30.00S HX  81
PITTSFIELD     PTSUNNY   72  67  83 NW5       30.01S
QUINCY         CLOUDY    70  67  90 NW8       30.00S
ROCKFORD       PTSUNNY   75  65  70 E10       30.00F
$$


CITY           SKY/WX    TMP DP  RH WIND       PRES   REMARKS
BURLINGTON     MOSUNNY   75  68  78 N7        29.98F
CEDAR RAPIDS   PTSUNNY   73  69  87 VRB3      30.00R
DES MOINES     CLOUDY    72  66  81 NW5       30.02S
KIRKSVILLE     PTSUNNY   73  64  73 NW6       30.02S
OTTUMWA        CLOUDY    71  66  84 NW5       30.01R
ST LOUIS       MOSUNNY   81  66  60 CALM      30.00S HX  83
$$


CITY           SKY/WX    TMP DP  RH WIND       PRES   REMARKS
TERRE HAUTE    SUNNY     79  67  66 W10       29.97S HX  81
EVANSVILLE     PTSUNNY   78  71  79 W3        29.98S HX  80
INDIANAPOLIS   MOSUNNY   80  65  59 W13       29.97S HX  82
LAFAYETTE      CLOUDY    71  69  93 VRB3      29.96S
MADISON        CLOUDY    70  62  76 NE10      30.02F
MILWAUKEE      PTSUNNY   72  64  76 NE12      30.02S
$$





USA.gov is the U.S. government's official web portal to all federal, state and local government web resources and services.